User: anonymous
Location: Steinbach
(49.5170°N, 96.6830°W)
Time: 18:34:16
(UTC-05:00)
Language:

NOSS 3-4 (A) - Orbit

View from above orbital plane
View from above orbital plane
View from above satellite
View from above satellite

Ground track
Ground track

The orbit data is extracted from the following two-line orbital elements,

1 31701U 07027A   14239.92488257 0.00000000  00000-0  00000-0 0    05
2 31701  63.4030 173.5849 0111000  37.4589 322.5411 13.40652971    02
Epoch (UTC): 27 August 2014 22:11:49
Eccentricity: 0.0111000
inclination: 63.4030°
perigee height: 1024 km
apogee height: 1190 km
right ascension of ascending node: 173.5849°
argument of perigee: 37.4589°
revolutions per day: 13.40652971
mean anomaly at epoch: 322.5411°
orbit number at epoch: 0

The dashed part of the orbit path shows where the satellite is in the earth's shadow,  

DLR